Tracking 30970 objects as of 3-Jul-2025
HD Live streaming from Space Station
objects crossing your sky now

STARLINK-4592

Track STARLINK-4592 now!
10-day predictions
STARLINK-4592 is classified as:


NORAD ID: 53634
Int'l Code: 2022-104AY
Perigee: 546.0 km
Apogee: 547.7 km
Inclination: 53.2 °
Period: 95.4 minutes
Semi major axis: 6917 km
RCS: Unknown
Launch date: August 28, 2022
Source: United States (US)
Launch site: AIR FORCE EASTERN TEST RANGE (AFETR)
Your satellite tracking list
NOAA 16 DEB
Track 1 satellite(s)




NASA's NSSDC Master Catalog

Two Line Element Set (TLE):
1 53634U 22104AY  25183.94498864 -.00000294  00000-0 -37723-6 0  9996
2 53634  53.2183 265.1760 0001227  81.9236 278.1895 15.08837005158521
Source of the keplerian elements: AFSPC